Location: Newark
(40.7066°N, 111.8219°W)
Time: 18:29:52
(UTC+00:00)

deb Explorer IX - Pass Details

Date: 20 November 2019
Orbit: 546 x 1105 km, 38.8° (Epoch: 09 December)

Event Time Altitude Azimuth Distance (km) Brightness Sun altitude
Exits shadow 12:12:55 46° 210° (SSW) 958 ? -23.8°
Maximum altitude 12:13:10 46° 201° (SSW) 947 ? -23.8°
Drops below altitude 10° 12:17:42 10° 128° (SE) 2,036 ? -22.9°
Sets 12:19:56 0° 122° (ESE) 2,874 ? -22.5°
